Date String (YYYY-MM-DD hh:mm:ss) UTC,Instrument flags,absolute air pressure of the measurement (hPa),sample flow rate (lpm),inlet stack bypass flow (lpm),air temperature of the measurement (°C),ambient temperature measured by the external sensor (°C),aerosol sample conditioner tube jacket temperature (°C),OPC LED temperature (°C),internal box temperature (°C),relative humidity of the measurement (%),span deviation,mass concentration of particles derived from Lorenz-Mie calculation of OPC scattering (μg/m³),mass concentration of particles derived from Lorenz-Mie calculation of OPC scattering (μg/m³),mass concentration of particles derived from Lorenz-Mie calculation of OPC scattering (μg/m³)
DateTimeUTC,F1_M11,P_M11,Q1_M11,Q2_M11,T1_M11,T2_M11,T3_M11,T4_M11,T5_M11,U1_M11,ZSPAN_M11,X0_M11,X2_M11,X1_M11
2023-06-06 02:00:00,SystemResetWarning,0833.3,5.00,000.00,029.6,028.1,000.0,038.1,031.0,29.5,0000.0,0008.73,0003.88,0003.12
2023-06-06 02:01:00,SystemResetWarning,0833.2,5.01,000.00,029.6,028.1,000.0,038.1,031.0,29.9,0000.0,0009.63,0004.00,0003.15
2023-06-06 02:02:00,SystemResetWarning,0833.3,5.02,000.00,029.6,028.1,000.0,038.1,031.0,30.0,0000.0,0009.86,0004.09,0003.19
2023-06-06 02:03:00,SystemResetWarning,0833.2,5.00,000.00,029.6,028.1,000.0,038.1,031.0,30.1,0000.0,0010.05,0004.13,0003.22
2023-06-06 02:04:00,SystemResetWarning,0833.3,5.00,000.00,029.6,028.1,000.0,038.1,031.0,30.3,0000.0,0010.37,0004.26,0003.28
2023-06-06 02:05:00,SystemResetWarning,0833.3,4.99,000.00,029.6,028.1,000.0,038.1,031.0,30.4,0000.0,0010.79,0004.36,0003.33
2023-06-06 02:06:00,SystemResetWarning,0833.2,5.00,000.00,029.6,028.1,000.0,038.1,031.0,30.4,0000.0,0010.85,0004.40,0003.35
2023-06-06 02:07:00,SystemResetWarning,0833.2,5.00,000.00,029.6,028.1,000.0,038.1,031.0,30.4,0000.0,0011.35,0004.41,0003.38
2023-06-06 02:08:00,SystemResetWarning,0833.2,5.00,000.00,029.6,028.1,000.0,038.1,030.9,30.3,0000.0,0011.66,0004.42,0003.39
2023-06-06 02:09:00,SystemResetWarning,0833.2,5.00,000.00,029.6,028.1,000.0,038.2,030.9,30.4,0000.0,0011.87,0004.47,0003.42
2023-06-06 02:10:00,SystemResetWarning,0833.3,5.00,000.00,029.6,028.1,000.0,038.2,030.9,30.6,0000.0,0011.71,0004.48,0003.45
2023-06-06 02:11:00,SystemResetWarning,0833.3,5.00,000.00,029.6,028.1,000.0,038.1,030.9,30.6,0000.0,0011.30,0004.57,0003.48
2023-06-06 02:12:00,SystemResetWarning,0833.4,5.00,000.00,029.6,028.1,000.0,038.2,030.9,30.4,0000.0,0011.59,0004.62,0003.50
2023-06-06 02:13:00,SystemResetWarning,0833.4,5.00,000.00,029.6,028.1,000.0,038.2,030.9,30.3,0000.0,0011.63,0004.64,0003.51
2023-06-06 02:14:00,SystemResetWarning,0833.4,5.00,000.00,029.6,028.1,000.0,038.2,030.9,30.2,0000.0,0012.19,0004.66,0003.52
2023-06-06 02:15:00,SystemResetWarning,0833.4,5.00,000.00,029.6,028.1,000.0,038.1,031.0,30.1,0000.0,0012.16,0004.66,0003.52
2023-06-06 02:16:00,SystemResetWarning,0833.4,5.00,000.00,029.6,028.1,000.0,038.2,030.9,30.0,0000.0,0011.77,0004.64,0003.52
2023-06-06 02:17:00,SystemResetWarning,0833.4,5.01,000.00,029.6,028.1,000.0,038.2,030.9,29.6,0000.0,0012.41,0004.63,0003.52
2023-06-06 02:18:00,SystemResetWarning,0833.4,5.00,000.00,029.6,028.1,000.0,038.2,031.0,29.2,0000.0,0012.67,0004.63,0003.51
2023-06-06 02:19:00,SystemResetWarning,0833.4,5.00,000.00,029.6,028.1,000.0,038.2,031.0,28.6,0000.0,0012.04,0004.66,0003.51
2023-06-06 02:20:00,SystemResetWarning,0833.4,5.00,000.00,029.6,028.1,000.0,038.2,031.0,28.8,0000.0,0012.08,0004.68,0003.50
2023-06-06 02:21:00,SystemResetWarning,0833.4,5.01,000.00,029.6,028.1,000.0,038.2,031.0,29.2,0000.0,0012.12,0004.69,0003.48
2023-06-06 02:22:00,SystemResetWarning,0833.4,5.00,000.00,029.6,028.1,000.0,038.2,031.0,29.4,0000.0,0012.03,0004.64,0003.46
2023-06-06 02:23:00,SystemResetWarning,0833.4,5.00,000.00,029.6,028.1,000.0,038.2,031.0,29.2,0000.0,0011.71,0004.56,0003.44
2023-06-06 02:24:00,SystemResetWarning,0833.4,5.00,000.00,029.6,028.1,000.0,038.2,030.9,28.2,0000.0,0011.31,0004.52,0003.42
2023-06-06 02:25:00,SystemResetWarning,0833.4,5.00,000.00,029.6,028.1,000.0,038.2,031.0,28.0,0000.0,0010.73,0004.52,0003.42
2023-06-06 02:26:00,SystemResetWarning,0833.4,4.99,000.00,029.6,028.1,000.0,038.2,031.0,27.9,0000.0,0010.63,0004.49,0003.40
2023-06-06 02:27:00,SystemResetWarning,0833.4,4.99,000.00,029.6,028.1,000.0,038.2,030.9,28.2,0000.0,0010.65,0004.46,0003.40
2023-06-06 02:28:00,SystemResetWarning,0833.5,5.00,000.00,029.6,028.1,000.0,038.2,030.9,28.6,0000.0,0010.41,0004.42,0003.39
2023-06-06 02:29:00,SystemResetWarning,0833.6,5.01,000.00,029.6,028.1,000.0,038.2,030.9,29.1,0000.0,0009.59,0004.43,0003.40
2023-06-06 02:30:00,SystemResetWarning,0833.6,5.00,000.00,029.6,028.0,000.0,038.2,030.9,29.8,0000.0,0009.56,0004.45,0003.42
2023-06-06 02:31:00,SystemResetWarning,0833.6,4.99,000.00,029.6,028.0,000.0,038.2,030.9,30.0,0000.0,0009.65,0004.48,0003.45
2023-06-06 02:32:00,SystemResetWarning,0833.6,5.00,000.00,029.6,028.0,000.0,038.2,030.9,30.1,0000.0,0009.49,0004.49,0003.47
2023-06-06 02:33:00,SystemResetWarning,0833.6,5.00,000.00,029.6,028.0,000.0,038.2,030.9,30.2,0000.0,0009.70,0004.52,0003.50
2023-06-06 02:34:00,SystemResetWarning,0833.7,4.99,000.00,029.5,028.0,000.0,038.2,030.8,30.4,0000.0,0010.08,0004.53,0003.52
2023-06-06 02:35:00,SystemResetWarning,0833.7,5.00,000.00,029.5,028.0,000.0,038.2,030.8,30.7,0000.0,0010.05,0004.54,0003.55
2023-06-06 02:36:00,SystemResetWarning,0833.7,5.00,000.00,029.5,028.0,000.0,038.2,030.8,30.7,0000.0,0009.99,0004.50,0003.55
2023-06-06 02:37:00,SystemResetWarning,0833.6,5.00,000.00,029.5,028.0,000.0,038.2,030.8,30.7,0000.0,0009.93,0004.52,0003.56
2023-06-06 02:38:00,SystemResetWarning,0833.7,5.00,000.00,029.5,028.0,000.0,038.2,030.8,30.4,0000.0,0009.89,0004.54,0003.56
2023-06-06 02:39:00,SystemResetWarning,0833.7,5.00,000.00,029.5,027.9,000.0,038.2,030.8,30.2,0000.0,0009.72,0004.56,0003.55
2023-06-06 02:40:00,SystemResetWarning,0833.7,5.00,000.00,029.5,027.9,000.0,038.2,030.8,30.2,0000.0,0010.01,0004.56,0003.55
2023-06-06 02:41:00,SystemResetWarning,0833.8,5.01,000.00,029.5,027.9,000.0,038.2,030.8,30.2,0000.0,0010.25,0004.51,0003.51
2023-06-06 02:42:00,SystemResetWarning,0833.8,5.00,000.00,029.5,027.9,000.0,038.2,030.7,30.1,0000.0,0010.06,0004.44,0003.48
2023-06-06 02:43:00,SystemResetWarning,0833.8,4.99,000.00,029.5,027.9,000.0,038.1,030.7,30.2,0000.0,0010.27,0004.36,0003.44
2023-06-06 02:44:00,SystemResetWarning,0833.8,5.00,000.00,029.4,027.8,000.0,038.1,030.7,30.3,0000.0,0010.45,0004.36,0003.42
2023-06-06 02:45:00,SystemResetWarning,0833.8,4.99,000.00,029.4,027.8,000.0,038.1,030.7,30.2,0000.0,0009.61,0004.35,0003.39
2023-06-06 02:46:00,SystemResetWarning,0833.8,5.01,000.00,029.4,027.8,000.0,038.1,030.7,30.1,0000.0,0009.62,0004.32,0003.34
2023-06-06 02:47:00,SystemResetWarning,0833.8,5.01,000.00,029.4,027.8,000.0,038.1,030.7,30.1,0000.0,0009.45,0004.26,0003.30
2023-06-06 02:48:00,SystemResetWarning,0833.8,5.01,000.00,029.4,027.8,000.0,038.1,030.7,30.1,0000.0,0009.43,0004.24,0003.26
2023-06-06 02:49:00,SystemResetWarning,0833.7,4.98,000.00,029.4,027.7,000.0,038.1,030.7,30.0,0000.0,0009.45,0004.20,0003.23
2023-06-06 02:50:00,SystemResetWarning,0833.8,5.00,000.00,029.4,027.7,000.0,038.1,030.7,29.9,0000.0,0009.75,0004.16,0003.21
2023-06-06 02:51:00,SystemResetWarning,0833.7,5.01,000.00,029.4,027.7,000.0,038.1,030.6,29.7,0000.0,0009.34,0004.11,0003.17
2023-06-06 02:52:00,SystemResetWarning,0833.8,5.00,000.00,029.3,027.7,000.0,038.1,030.6,29.6,0000.0,0008.88,0004.04,0003.14
2023-06-06 02:53:00,SystemResetWarning,0833.8,5.00,000.00,029.3,027.7,000.0,038.1,030.6,29.5,0000.0,0008.63,0003.94,0003.11
2023-06-06 02:54:00,SystemResetWarning,0833.8,5.00,000.00,029.3,027.7,000.0,038.1,030.6,29.0,0000.0,0008.21,0003.87,0003.07
2023-06-06 02:55:00,SystemResetWarning,0833.7,5.00,000.00,029.3,027.6,000.0,038.0,030.5,29.0,0000.0,0007.85,0003.75,0002.98
2023-06-06 02:56:00,SystemResetWarning,0833.7,5.00,000.00,029.3,027.6,000.0,038.0,030.5,29.1,0000.0,0007.75,0003.70,0002.93
2023-06-06 02:57:00,SystemResetWarning,0833.7,4.99,000.00,029.3,027.6,000.0,038.0,030.5,29.0,0000.0,0007.72,0003.67,0002.92
2023-06-06 02:58:00,SystemResetWarning,0833.8,5.00,000.00,029.3,027.6,000.0,038.0,030.5,29.1,0000.0,0007.61,0003.63,0002.90
2023-06-06 02:59:00,SystemResetWarning,0833.8,4.99,000.00,029.3,027.6,000.0,038.0,030.5,29.2,0000.0,0007.38,0003.55,0002.87
